Location: Te Maire Creek
(41.1333°S, 175.9167°E)
Time: 22:03:51
(UTC+00:00)

Cosmos 1980 Rocket - Pass Details

Date: 19 May 2024
Orbit: 827 x 851 km, 71.0° (Epoch: 21 June)

Event Time Altitude Azimuth Distance (km) Brightness Sun altitude
Exits shadow 16:19:53 19° 161° (SSE) 1,901 4.2 -34.0°
Drops below altitude 10° 16:21:26 10° 159° (SSE) 2,473 4.8 -33.7°
Sets 16:23:53 0° 157° (SSE) 3,411 5.6 -33.3°
